Wind_Speed
49 46 50 47 45 45 35 32 30 27 22 15 9 2 7 12 18 21 22 22 20 18 17 12 8 4 3 5 6 7 10 17 12 11 9 9 8 9 9 7 4 8 10 9 11 9 10 3 2 3 2 8 9 9
50 49 44 52 44 39 39 35 32 29 22 16 10 3 4 9 15 20 22 22 20 21 20 17 11 7 5 1 4 7 7 6 13 8 10 8 7 6 10 5 11 8 10 4 8 3 3 5 2 9 11 12 10 11
51 50 43 44 49 39 41 37 33 29 22 16 11 6 2 7 12 17 21 20 17 17 19 20 17 14 9 5 1 7 10 9 6 16 8 9 7 9 8 10 10 10 10 13 12 5 6 4 7 14 12 13 13 12
56 52 51 42 52 37 43 39 34 29 23 18 13 7 2 4 10 14 18 18 17 11 18 17 18 17 14 9 4 2 5 9 14 11 12 11 10 11 13 15 14 13 14 14 18 18 18 18 16 15 12 11 11 10
58 45 51 45 51 39 45 37 35 30 24 20 13 8 5 3 7 11 14 16 14 12 10 12 14 14 16 17 12 5 3 7 11 15 18 15 14 12 13 17 20 18 18 21 22 23 24 23 18 18 18 16 17 15
55 51 47 47 50 47 45 40 37 32 25 19 12 10 3 4 3 7 11 14 12 10 9 6 8 12 13 13 12 12 9 5 8 12 13 17 22 20 15 25 25 23 23 25 25 28 31 32 32 31 28 23 22 20
48 47 55 55 40 50 47 42 38 32 26 19 15 10 7 8 1 4 9 9 10 10 7 4 5 9 10 11 9 10 9 8 7 6 7 10 14 16 23 29 24 20 19 16 16 22 26 26 27 26 29 28 25 24
51 52 58 54 45 52 46 43 40 32 27 21 16 11 9 8 4 1 3 7 9 8 7 5 5 6 8 10 10 10 7 7 6 5 5 6 8 7 4 2 3 7 13 16 20 22 24 22 24 15 16 19 24 24
54 59 61 54 50 53 47 44 37 32 27 23 18 12 11 7 5 3 3 2 5 7 4 6 7 5 9 11 11 11 8 6 5 7 7 7 7 5 5 6 11 12 16 18 18 17 15 9 11 19 20 21 22 22
53 56 57 52 56 49 46 43 38 32 28 23 18 15 9 7 6 6 7 4 2 3 4 5 6 6 8 11 12 9 5 5 6 4 9 7 6 6 5 8 11 14 18 21 16 14 12 10 13 15 15 17 19 21
58 62 59 53 55 48 45 41 36 32 28 24 20 15 13 9 9 10 8 7 5 4 1 3 4 6 7 9 9 4 6 6 4 4 5 4 2 5 9 12 15 18 20 16 16 14 13 15 14 13 14 15 17 19
68 66 60 59 54 50 45 38 32 27 27 24 17 15 13 11 9 8 9 7 6 5 2 2 3 4 7 6 3 3 3 4 3 5 5 4 6 9 10 13 16 18 17 14 12 11 9 12 13 15 17 19 20 21
68 67 60 61 57 49 41 36 32 30 25 17 15 14 8 10 9 7 10 7 7 4 2 1 2 3 3 4 3 3 3 5 6 5 5 7 10 12 13 15 17 15 14 14 12 11 11 11 10 13 15 17 19 20
75 70 67 60 52 45 40 35 33 27 19 16 13 10 9 7 9 10 13 7 4 3 2 0 2 3 4 4 3 4 4 5 4 5 7 11 12 12 16 18 17 12 11 13 13 12 11 10 11 10 9 9 10 11
65 68 59 53 48 45 40 36 28 23 19 16 9 8 11 10 8 11 9 3 2 2 2 2 5 6 5 4 4 4 4 5 6 9 12 14 16 19 15 9 9 12 13 14 15 13 11 11 11 12 11 10 11 9
67 62 56 52 49 46 37 29 25 23 17 12 8 6 4 4 8 12 8 7 6 6 4 3 4 4 5 4 5 7 5 7 12 14 16 20 17 12 14 20 21 18 17 17 17 15 12 10 9 9 11 11 10 11
68 64 57 52 47 40 32 31 25 18 12 8 10 8 5 4 9 13 13 11 10 10 6 3 3 4 4 5 6 8 12 17 19 22 24 24 27 29 30 27 23 20 20 21 19 16 13 12 10 9 9 9 9 9
60 58 54 49 44 42 37 31 23 11 11 10 8 6 7 7 10 16 16 15 14 12 10 9 8 11 6 9 10 16 16 19 22 24 26 25 23 24 23 21 19 18 18 20 22 20 19 16 14 12 9 9 9 8
53 50 46 43 40 37 32 24 17 11 11 7 6 7 7 10 12 16 19 18 16 15 16 14 10 9 10 15 19 21 21 24 25 27 24 24 26 24 20 18 18 18 17 16 17 19 20 20 19 19 18 16 14 13
45 44 42 39 34 28 16 12 16 10 6 6 7 8 13 13 13 17 19 21 20 22 25 27 19 15 17 19 24 23 24 29 30 28 22 21 23 20 17 13 13 13 13 15 15 15 17 19 21 21 20 19 19 18
48 41 35 28 25 20 12 12 11 7 7 8 14 13 10 9 11 14 18 19 22 26 28 20 20 20 23 24 26 26 27 29 27 26 22 17 18 16 13 12 11 10 11 10 9 11 13 15 17 18 19 20 18 17
37 33 28 24 19 16 11 10 10 9 10 14 14 8 7 8 8 9 12 18 24 25 24 22 22 23 25 26 25 28 29 27 24 21 20 18 15 14 12 10 9 10 10 10 10 11 11 12 13 15 16 18 19 23
28 26 22 19 13 11 11 16 12 14 11 13 8 7 9 10 12 12 17 21 22 16 17 21 21 23 25 24 24 25 26 25 22 22 21 18 17 15 13 11 10 11 14 15 14 14 14 13 13 13 13 13 15 17
23 23 18 11 11 12 15 13 18 16 15 13 11 13 13 13 12 17 22 20 12 13 15 17 20 21 23 24 23 22 23 24 22 22 20 19 18 18 18 18 17 16 16 15 15 15 15 15 15 15 13 12 12 12
20 15 10 13 15 15 20 22 19 16 14 9 10 11 10 14 19 23 24 10 8 10 13 16 19 22 24 22 21 21 23 24 22 22 21 20 21 21 20 21 21 21 22 20 19 18 19 19 18 17 17 16 15 14
16 12 11 12 14 17 18 15 13 12 10 13 13 17 18 16 16 11 12 8 8 8 10 10 11 12 15 17 17 18 19 21 22 23 22 21 20 22 22 23 22 19 24 26 27 26 24 22 22 22 21 20 20 19
15 14 14 18 18 14 13 15 13 11 11 13 16 15 14 9 8 8 7 8 8 11 12 13 14 14 13 12 14 15 14 14 15 17 19 22 23 24 27 28 27 25 27 30 31 32 31 28 27 26 26 25 24 24
22 22 20 16 16 15 11 9 8 8 12 13 14 14 7 5 8 13 15 15 18 18 18 17 17 18 18 19 19 20 22 23 22 23 24 26 28 29 31 32 32 32 32 33 34 35 35 35 33 31 31 30 28 29
17 14 11 13 13 13 13 11 11 12 12 12 14 18 20 19 16 17 19 19 20 21 21 20 22 24 26 28 29 29 28 28 28 30 31 32 32 33 35 36 36 37 38 39 39 39 38 38 37 36 35 34 32 31
12 12 15 13 10 12 14 14 12 10 12 15 18 21 22 21 18 19 20 21 23 25 26 28 30 31 32 31 30 29 30 30 30 32 33 34 36 37 39 39 40 41 41 41 39 37 37 38 38 38 38 36 34 34
10 13 14 13 12 14 16 19 20 21 22 22 22 23 22 22 20 19 20 22 24 27 29 31 31 31 32 33 34 35 34 34 34 34 35 36 37 38 39 40 40 40 40 40 40 40 39 38 38 37 37 38 38 38
12 12 12 11 11 12 14 17 19 22 23 23 23 22 21 21 22 23 23 22 22 23 25 27 29 30 32 33 34 35 36 35 34 35 37 37 36 36 37 39 40 39 38 37 36 36 37 37 37 37 37 36 35 36
11 13 15 15 12 13 12 14 15 17 16 16 16 16 17 19 20 17 19 21 24 26 26 26 27 30 33 36 38 39 38 37 33 30 28 27 27 28 29 30 29 29 30 31 33 34 34 33 33 33 34 36 36 36
Wind_Direction
204 206 210 208 218 214 201 201 203 201 197 197 201 136 53 34 27 25 27 30 39 38 38 38 28 6 265 236 223 217 219 222 214 220 212 201 207 211 220 209 209 209 205 221 229 233 264 229 268 285 292 322 316 321
203 210 221 213 209 211 189 194 201 199 197 202 205 181 64 30 25 21 25 29 43 48 50 44 32 25 30 210 206 209 201 211 211 210 173 192 196 198 216 211 218 210 210 210 218 255 242 266 322 326 311 309 284 297
201 206 213 211 206 197 185 197 197 196 194 196 198 195 78 15 15 18 24 31 42 48 52 46 43 45 42 43 241 214 214 215 210 218 213 208 197 219 228 235 231 226 231 237 261 279 264 278 278 303 291 290 286 291
202 205 206 212 208 201 185 196 193 192 192 192 195 193 133 9 17 23 25 32 42 59 54 46 42 46 43 44 46 219 230 235 238 240 234 230 219 253 237 239 240 245 252 259 265 273 273 274 281 269 259 273 288 297
199 205 209 213 203 199 185 190 191 188 191 192 186 195 185 359 9 25 28 37 45 52 51 49 42 41 40 40 36 19 287 252 247 246 244 248 245 248 249 246 254 267 260 277 278 273 272 270 257 254 266 275 269 275
200 206 208 210 209 182 182 192 189 187 190 187 185 205 199 264 356 23 35 37 43 49 41 47 36 31 23 21 18 23 14 331 275 260 255 254 252 257 267 270 274 277 276 283 281 278 276 271 266 262 265 263 267 268
201 212 206 202 200 176 186 188 189 189 192 185 188 208 214 233 215 45 50 44 49 48 39 47 24 7 7 14 6 4 359 0 349 302 279 266 266 258 264 275 290 276 271 275 281 287 298 289 267 268 260 257 262 265
207 210 205 207 199 177 185 187 190 189 189 186 185 200 214 224 208 145 42 45 60 63 57 47 17 0 357 356 348 354 349 340 324 309 301 304 288 269 249 283 316 295 298 293 286 294 313 312 240 240 247 256 259 264
207 212 200 205 187 179 185 187 188 191 188 185 193 191 214 218 219 242 221 49 66 74 66 50 23 359 343 339 338 334 334 327 316 301 286 294 283 243 227 269 300 309 314 315 305 284 299 331 242 246 261 264 256 253
199 207 204 192 172 183 183 186 189 190 186 189 191 197 209 228 228 234 221 207 194 113 73 60 30 2 348 334 331 341 319 312 312 307 307 292 297 254 279 317 324 320 315 314 305 284 269 285 284 276 272 259 266 267
203 204 198 185 174 182 185 187 187 186 186 192 190 203 226 236 236 231 212 197 197 187 186 24 10 346 344 330 324 321 321 309 310 323 308 289 307 293 287 305 321 326 327 329 324 308 275 264 266 268 283 283 277 284
201 203 192 182 177 183 188 184 183 185 191 182 187 206 233 231 228 214 196 198 188 191 231 334 342 335 334 329 326 320 308 288 270 283 275 261 297 294 299 310 316 319 326 332 326 330 311 271 272 279 285 281 283 283
202 208 202 182 178 182 178 177 174 184 175 168 184 205 226 222 215 206 194 174 176 191 243 273 311 324 325 322 291 254 251 254 282 252 245 263 291 307 309 306 310 308 314 320 318 320 312 312 306 302 296 291 283 276
182 190 181 167 173 170 173 171 174 167 158 173 185 202 219 211 206 204 184 176 179 203 199 249 316 292 288 286 230 244 253 277 254 253 260 284 301 309 310 313 311 303 328 327 321 317 319 310 302 303 308 318 311 300
179 172 160 166 169 171 165 167 153 154 162 169 169 201 214 218 208 185 185 210 239 224 240 286 295 276 257 230 221 239 232 239 237 254 288 314 318 317 309 314 340 342 337 341 343 335 317 316 309 300 307 318 313 295
160 158 162 165 163 160 156 148 150 161 159 162 177 203 197 209 204 205 226 261 274 270 268 287 269 246 219 205 212 217 229 242 274 281 292 304 312 302 300 314 319 320 313 311 317 329 330 321 319 317 315 306 307 292
160 159 164 164 161 160 167 156 161 160 155 163 189 212 245 258 226 233 248 252 261 258 250 248 236 224 246 235 225 229 264 294 293 290 290 293 297 295 294 302 302 291 289 293 296 299 303 309 308 313 319 328 327 319
156 156 158 161 161 154 155 159 164 167 181 190 209 248 270 285 244 237 241 246 253 255 251 246 241 235 238 248 274 296 287 279 281 280 287 295 295 297 301 300 298 298 288 280 271 273 280 282 288 293 299 309 316 319
156 157 158 161 161 159 157 164 171 166 179 201 252 279 291 295 252 233 236 242 252 257 253 255 255 240 284 287 292 293 283 275 274 279 287 291 291 297 300 302 301 295 291 286 280 275 272 273 275 276 277 278 280 282
156 159 160 160 161 159 154 156 175 176 199 239 264 293 303 290 248 229 233 240 250 261 257 254 276 295 298 293 289 296 294 281 281 286 286 286 289 297 302 308 314 312 299 286 282 282 282 281 276 272 275 278 273 271
157 155 156 155 158 164 158 156 177 207 221 278 308 312 306 267 240 237 239 244 252 259 267 294 297 291 284 274 279 290 290 286 285 287 287 276 276 284 290 302 316 336 346 335 315 300 293 288 286 287 280 272 270 267
154 152 152 155 160 170 193 211 223 242 283 300 307 301 262 249 257 249 254 262 268 280 297 293 284 275 270 272 280 284 288 286 283 280 277 271 266 265 278 296 318 327 334 337 338 340 336 330 316 301 288 281 274 271
154 157 164 172 183 201 231 236 252 278 289 300 299 259 266 280 271 272 273 272 279 293 276 278 278 274 276 281 287 291 287 280 275 269 265 263 255 257 256 266 286 311 319 322 329 332 327 325 329 332 326 306 290 287
159 162 174 185 208 226 233 256 278 283 287 285 276 255 259 274 293 294 293 297 297 268 269 274 278 278 281 284 280 277 270 267 268 266 263 260 253 253 254 259 274 291 302 307 313 316 318 318 320 317 314 318 315 305
170 180 200 219 230 245 256 265 268 264 265 257 248 249 258 289 295 294 298 317 294 283 281 280 282 281 282 286 289 279 269 265 267 264 261 256 250 254 257 265 275 282 289 292 298 306 308 306 307 306 306 303 296 294
201 212 213 221 228 240 250 256 256 246 243 239 248 262 280 283 280 274 296 296 289 278 280 286 291 302 301 298 294 290 283 277 271 265 260 260 257 258 263 270 276 282 288 291 291 293 296 295 293 294 294 291 291 290
223 230 235 240 242 242 238 245 250 239 240 238 249 254 258 253 270 266 288 288 276 293 288 284 287 291 290 289 293 292 295 297 294 289 278 272 268 269 271 274 279 285 287 288 289 291 291 292 290 286 284 285 282 282
234 235 232 240 234 224 205 201 215 229 238 240 244 252 242 242 280 292 293 283 282 284 283 286 288 289 290 293 293 290 288 291 293 291 287 284 281 279 279 280 282 282 281 281 282 283 286 287 287 286 284 283 280 277
219 221 225 220 214 206 218 224 232 248 253 249 270 279 281 291 292 280 280 283 283 282 280 284 288 292 297 300 301 301 298 293 290 287 285 283 280 280 280 280 281 280 280 280 281 281 281 281 281 282 281 281 281 278
222 223 223 217 220 235 242 247 254 262 264 267 275 280 281 284 281 282 286 285 283 284 286 288 291 297 299 298 297 296 295 292 287 283 279 276 275 275 275 276 276 277 278 279 280 279 279 279 279 279 279 278 277 277
229 236 242 244 251 253 252 254 260 267 271 270 272 279 288 287 288 287 287 290 292 291 291 292 294 295 297 297 296 296 295 293 289 286 284 283 282 282 282 282 282 283 284 285 286 288 288 286 283 280 278 276 275 273
242 246 250 250 259 264 264 263 264 265 267 269 274 280 284 286 292 297 299 295 288 287 289 290 290 292 296 298 300 301 301 300 298 296 292 287 283 280 281 280 280 283 285 286 287 289 288 285 282 280 277 273 270 267
240 244 246 249 251 252 268 283 286 286 282 279 278 284 289 295 298 298 294 295 300 301 300 301 304 304 303 301 300 298 297 298 299 299 297 290 283 281 280 280 280 280 280 280 281 283 286 288 286 283 279 273 266 261
Height
2953 2965 2973 2980 2989 2996 3004 3012 3020 3024 3028 3032 3035 3035 3033 3033 3030 3029 3024 3021 3019 3016 3016 3014 3014 3013 3013 3014 3016 3018 3021 3022 3027 3030 3030 3031 3032 3033 3034 3034 3035 3038 3040 3041 3043 3044 3042 3039 3040 3041 3041 3039 3038 3036
2946 2958 2965 2973 2981 2988 2999 3006 3014 3019 3024 3029 3031 3032 3030 3030 3028 3027 3023 3021 3018 3018 3018 3015 3015 3014 3012 3013 3015 3016 3019 3019 3022 3024 3025 3028 3030 3030 3031 3032 3032 3035 3036 3037 3039 3038 3038 3038 3038 3038 3037 3036 3035 3034
2939 2950 2956 2965 2974 2982 2993 3001 3008 3015 3020 3025 3027 3028 3027 3028 3027 3026 3022 3020 3019 3019 3018 3017 3017 3015 3014 3013 3013 3016 3017 3019 3021 3021 3023 3024 3025 3027 3029 3030 3030 3030 3031 3032 3034 3035 3035 3036 3036 3035 3033 3033 3032 3031
2931 2940 2950 2958 2967 2976 2986 2997 3004 3010 3016 3020 3022 3024 3023 3025 3025 3024 3022 3020 3019 3020 3019 3020 3019 3017 3016 3014 3014 3015 3016 3018 3019 3021 3023 3023 3023 3023 3023 3025 3027 3029 3028 3027 3028 3029 3030 3031 3031 3030 3030 3029 3029 3028
2925 2934 2942 2952 2962 2969 2981 2991 2999 3005 3012 3015 3017 3020 3021 3023 3023 3022 3021 3020 3019 3022 3021 3021 3021 3019 3018 3016 3015 3015 3015 3015 3016 3018 3018 3020 3022 3022 3021 3019 3020 3023 3024 3024 3022 3022 3022 3024 3024 3024 3024 3024 3024 3023
2918 2929 2937 2946 2955 2964 2976 2987 2994 3001 3008 3011 3013 3018 3017 3022 3022 3022 3021 3021 3019 3019 3020 3021 3022 3020 3019 3017 3017 3016 3014 3014 3014 3014 3015 3015 3016 3020 3018 3014 3015 3016 3017 3017 3017 3015 3014 3015 3015 3016 3017 3018 3018 3018
2913 2922 2932 2940 2949 2960 2972 2982 2990 2997 3004 3005 3010 3014 3015 3020 3020 3021 3022 3021 3018 3018 3020 3020 3021 3021 3020 3018 3017 3016 3014 3013 3012 3012 3011 3012 3013 3012 3010 3009 3010 3009 3009 3009 3008 3006 3005 3004 3002 3004 3006 3009 3010 3011
2907 2916 2926 2934 2943 2957 2967 2977 2986 2993 2999 3002 3007 3010 3014 3017 3018 3019 3019 3019 3018 3019 3019 3021 3022 3021 3020 3018 3017 3015 3013 3012 3011 3010 3010 3009 3008 3007 3006 3006 3006 3006 3005 3005 3003 3000 2997 2992 2992 2997 2998 3001 3003 3004
2901 2909 2919 2929 2938 2952 2963 2973 2981 2989 2994 3000 3004 3007 3014 3015 3016 3017 3019 3018 3018 3022 3019 3019 3020 3021 3019 3018 3016 3014 3012 3010 3010 3008 3008 3006 3002 3003 3002 3001 3003 3002 3001 2999 2997 2994 2993 2991 2992 2994 2994 2995 2996 2997
2895 2906 2916 2925 2936 2949 2959 2969 2978 2985 2991 2997 3001 3008 3010 3012 3014 3016 3017 3017 3018 3018 3018 3018 3018 3019 3019 3016 3014 3013 3010 3009 3007 3008 3006 3005 3003 3004 3004 3003 3000 2999 2997 2994 2991 2990 2989 2989 2989 2989 2989 2989 2989 2990
2891 2901 2913 2922 2934 2947 2957 2966 2975 2982 2988 2993 2999 3004 3009 3010 3011 3012 3013 3015 3015 3016 3016 3016 3016 3017 3016 3015 3013 3012 3010 3008 3007 3009 3006 3003 3002 3002 3003 3001 3000 2996 2992 2988 2986 2985 2984 2984 2985 2985 2984 2983 2984 2983
2883 2895 2908 2918 2932 2946 2958 2966 2973 2979 2986 2990 2996 3001 3006 3007 3008 3009 3009 3011 3011 3013 3013 3014 3014 3014 3013 3012 3011 3012 3011 3010 3007 3006 3005 3000 3001 2999 2998 2998 2997 2995 2991 2987 2985 2983 2981 2980 2980 2979 2978 2978 2978 2977
2881 2890 2904 2916 2932 2945 2955 2963 2969 2979 2984 2987 2995 3001 3004 3004 3004 3004 3004 3006 3007 3009 3011 3011 3012 3011 3010 3010 3010 3011 3010 3008 3007 3005 3002 2998 2998 2997 2996 2994 2993 2991 2989 2986 2983 2981 2979 2977 2976 2975 2974 2972 2971 2971
2878 2886 2900 2917 2932 2941 2953 2961 2970 2975 2979 2987 2993 2997 2999 2998 2997 2999 3002 3004 3006 3006 3007 3008 3008 3009 3007 3007 3008 3008 3008 3007 3005 3002 2998 2996 2996 2995 2994 2991 2989 2987 2985 2983 2980 2978 2976 2975 2974 2972 2971 2969 2967 2967
2878 2892 2905 2921 2932 2942 2952 2963 2966 2972 2979 2986 2991 2992 2993 2993 2993 2997 3000 3002 3002 3003 3004 3004 3005 3006 3005 3005 3006 3006 3005 3002 2999 2996 2995 2994 2992 2991 2990 2989 2986 2985 2983 2981 2979 2976 2974 2972 2971 2970 2968 2967 2966 2965
2881 2894 2908 2921 2931 2943 2952 2957 2964 2973 2977 2984 2988 2990 2990 2991 2992 2994 2997 2999 2999 2999 3000 3002 3002 3001 3001 3001 3002 3001 3000 2996 2995 2994 2992 2990 2989 2987 2987 2985 2984 2982 2981 2979 2977 2975 2972 2970 2969 2968 2967 2965 2963 2963
2881 2891 2909 2922 2933 2941 2949 2958 2966 2972 2977 2981 2985 2987 2988 2988 2990 2992 2994 2995 2995 2996 2997 2999 2998 2998 2998 2997 2996 2994 2993 2993 2991 2989 2987 2985 2983 2981 2979 2978 2977 2976 2974 2974 2973 2972 2970 2969 2967 2965 2964 2963 2961 2960
2888 2900 2912 2922 2932 2940 2948 2956 2964 2970 2974 2980 2982 2983 2984 2985 2985 2987 2989 2990 2991 2992 2993 2995 2995 2993 2993 2991 2990 2990 2987 2986 2985 2983 2981 2979 2976 2974 2973 2972 2970 2968 2967 2965 2965 2965 2965 2964 2964 2963 2961 2960 2959 2958
2895 2906 2918 2927 2936 2943 2951 2958 2963 2968 2973 2976 2978 2979 2979 2980 2980 2981 2983 2985 2986 2987 2989 2989 2988 2986 2988 2986 2985 2983 2981 2978 2977 2975 2975 2972 2968 2967 2966 2965 2963 2961 2960 2958 2957 2957 2958 2958 2958 2957 2956 2956 2955 2955
2906 2915 2923 2930 2937 2943 2950 2956 2962 2966 2969 2973 2973 2973 2974 2975 2974 2974 2977 2979 2981 2981 2980 2979 2980 2981 2981 2979 2977 2976 2974 2971 2969 2968 2970 2967 2965 2965 2961 2959 2957 2955 2953 2952 2952 2951 2951 2951 2951 2950 2950 2950 2950 2949
2907 2916 2924 2930 2936 2942 2948 2954 2959 2963 2965 2967 2967 2967 2968 2968 2968 2970 2972 2973 2972 2970 2970 2974 2974 2974 2972 2970 2968 2967 2966 2963 2963 2962 2963 2962 2959 2960 2960 2957 2954 2951 2950 2949 2948 2946 2946 2945 2944 2944 2943 2944 2943 2942
2910 2917 2925 2931 2937 2943 2948 2952 2956 2958 2961 2960 2961 2963 2964 2965 2965 2966 2967 2966 2964 2965 2966 2966 2964 2963 2961 2961 2961 2959 2957 2956 2955 2956 2956 2956 2954 2953 2955 2954 2951 2950 2948 2947 2946 2944 2942 2941 2939 2938 2937 2936 2936 2936
2915 2922 2928 2933 2937 2941 2947 2949 2952 2952 2953 2954 2957 2960 2960 2961 2961 2961 2959 2959 2959 2961 2957 2955 2954 2953 2952 2953 2952 2952 2950 2948 2947 2948 2948 2949 2948 2948 2948 2949 2948 2947 2945 2943 2942 2941 2940 2938 2936 2934 2932 2931 2930 2929
2919 2924 2928 2932 2936 2939 2941 2943 2943 2945 2947 2951 2953 2953 2954 2955 2956 2954 2953 2953 2952 2950 2948 2948 2947 2946 2945 2944 2943 2942 2940 2939 2940 2941 2940 2941 2942 2942 2942 2943 2942 2941 2940 2939 2939 2937 2936 2935 2933 2932 2930 2928 2926 2925
2920 2925 2927 2929 2932 2934 2934 2935 2937 2940 2943 2946 2947 2948 2949 2950 2950 2948 2947 2947 2945 2944 2943 2942 2941 2940 2938 2937 2936 2935 2934 2933 2935 2936 2935 2934 2935 2935 2936 2936 2936 2935 2934 2933 2933 2932 2931 2930 2928 2927 2926 2924 2922 2921
2919 2922 2924 2924 2925 2928 2928 2930 2932 2936 2939 2941 2941 2942 2944 2944 2944 2942 2941 2941 2940 2939 2938 2937 2937 2936 2934 2932 2932 2930 2930 2929 2928 2928 2929 2928 2929 2929 2929 2929 2930 2931 2927 2926 2925 2925 2924 2923 2921 2920 2920 2918 2917 2916
2913 2914 2915 2917 2919 2922 2925 2927 2929 2931 2932 2934 2936 2938 2939 2939 2937 2937 2937 2936 2936 2935 2934 2933 2931 2931 2930 2929 2928 2925 2925 2924 2923 2923 2922 2922 2922 2922 2922 2922 2922 2922 2920 2918 2916 2915 2914 2914 2913 2911 2910 2910 2909 2908
2907 2909 2912 2914 2917 2920 2922 2924 2926 2928 2929 2930 2932 2933 2934 2933 2934 2934 2933 2931 2930 2929 2928 2927 2925 2924 2924 2923 2921 2919 2918 2917 2916 2915 2914 2914 2913 2913 2912 2912 2911 2909 2908 2907 2905 2904 2903 2901 2901 2901 2900 2899 2899 2898
2902 2906 2909 2911 2914 2916 2918 2920 2922 2924 2925 2925 2926 2927 2928 2928 2929 2927 2926 2924 2923 2922 2921 2920 2919 2918 2917 2914 2913 2911 2909 2908 2907 2905 2904 2903 2902 2902 2899 2898 2897 2896 2894 2893 2892 2890 2890 2889 2888 2888 2888 2887 2888 2887
2901 2904 2907 2909 2911 2912 2915 2917 2918 2919 2919 2920 2920 2920 2921 2921 2921 2919 2918 2917 2916 2914 2913 2912 2910 2909 2907 2905 2902 2900 2897 2896 2894 2893 2891 2890 2888 2887 2886 2885 2883 2881 2879 2877 2877 2877 2876 2875 2874 2874 2874 2874 2875 2875
2899 2902 2904 2905 2907 2909 2911 2912 2912 2913 2913 2914 2913 2912 2912 2911 2912 2912 2912 2911 2909 2907 2905 2904 2901 2897 2895 2892 2890 2887 2886 2884 2881 2879 2878 2876 2874 2872 2870 2868 2866 2865 2864 2863 2861 2860 2860 2859 2859 2859 2859 2859 2860 2860
2897 2898 2900 2901 2903 2905 2905 2906 2906 2906 2906 2906 2906 2905 2904 2903 2902 2904 2904 2903 2901 2900 2898 2895 2892 2888 2885 2881 2878 2875 2872 2870 2868 2866 2863 2861 2859 2857 2855 2854 2852 2851 2850 2848 2847 2846 2845 2844 2843 2842 2842 2843 2844 2844
2893 2894 2896 2898 2898 2900 2902 2902 2901 2900 2899 2898 2897 2897 2897 2897 2897 2898 2896 2894 2893 2890 2887 2884 2881 2878 2875 2871 2868 2864 2861 2858 2855 2852 2849 2847 2846 2844 2843 2841 2840 2839 2838 2837 2836 2834 2833 2831 2829 2828 2827 2827 2827 2828